Southern Pines, NC

9:28 AM EDT on September 22, 2017 (GMT -0400)
Moore County

Weather History for KSOP - September, 2013

Change the Weather History Date:

Monday, September 23, 2013

  Actual Average Record
Temperature  
Mean Temperature 61 °F -  
Max Temperature 69 °F 76 °F 96 °F (2010)
Min Temperature 53 °F 57 °F 48 °F (1999)
Degree Days  
Heating Degree Days 4    
Growing Degree Days 11 (Base 50)    
Moisture  
Dew Point 50 °F    
Average Humidity 77    
Maximum Humidity 94    
Minimum Humidity 46    
Precipitation  
Precipitation 0.00 in - - ()
Sea Level Pressure  
Sea Level Pressure 30.00 in    
Wind  
Wind Speed 2 mph (NE)    
Max Wind Speed 9 mph    
Max Gust Speed -    
Visibility 10 miles    
Events      
Averages and records for this station are not official NWS values.
T = Trace of Precipitation, MM = Missing Value Source: NWS Daily Summary

Daily Weather History Graph

Daily Weather History Graph

Search for Another Location

Airport or City:

Trip Planner

Search our weather history database for the weather conditions in past years. The results will help you decide how hot, cold, wet, or windy it might be!

Date:

Astronomy

Sep. 23, 2013 Rise Set
Actual Time 7:06 AM EDT 7:12 PM EDT
Civil Twilight 6:41 AM EDT 7:37 PM EDT
Nautical Twilight 6:11 AM EDT 8:07 PM EDT
Astronomical Twilight 5:41 AM EDT 8:37 PM EDT
Moon 9:54 PM EDT (9/23) 11:13 AM EDT (9/23)
Length of Visible Light 12h 56m
Length of Day
12h 06m
Waning Gibbous, 81% of the Moon is Illuminated
Sep 23
Waning Gibbous
Sep 26
Last Quarter
Oct 4
New
Oct 11
First Quarter
Oct 18
Full

Hourly Weather History & Observations

Time (EDT) Temp. Dew Point Humidity Pressure Visibility Wind Dir Wind Speed Gust Speed Precip Events Conditions
12:15 AM 55.4 °F 51.8 °F 88% 29.91 in 10.0 mi Calm Calm - N/A   Clear
12:35 AM 57.2 °F 53.6 °F 88% 29.92 in 10.0 mi Calm Calm - N/A   Clear
12:55 AM 55.4 °F 51.8 °F 88% 29.91 in 10.0 mi Calm Calm - N/A   Clear
1:15 AM 55.4 °F 51.8 °F 88% 29.92 in 10.0 mi Calm Calm - N/A   Clear
1:35 AM 55.4 °F 51.8 °F 88% 29.93 in 9.0 mi Calm Calm - N/A   Clear
1:55 AM 55.4 °F 51.8 °F 88% 29.93 in 7.0 mi Calm Calm - N/A   Clear
2:35 AM 53.6 °F 50.0 °F 88% 29.94 in 7.0 mi Calm Calm - N/A   Clear
2:55 AM 53.6 °F 50.0 °F 88% 29.94 in 9.0 mi Calm Calm - N/A   Clear
3:15 AM 53.6 °F 48.2 °F 82% 29.94 in 8.0 mi Calm Calm - N/A   Clear
3:35 AM 53.6 °F 51.8 °F 94% 29.94 in 10.0 mi Calm Calm - N/A   Clear
3:55 AM 53.6 °F 50.0 °F 88% 29.95 in 8.0 mi Calm Calm - N/A   Clear
4:15 AM 53.6 °F 50.0 °F 88% 29.95 in 7.0 mi Calm Calm - N/A   Clear
4:55 AM 53.6 °F 50.0 °F 88% 29.96 in 10.0 mi Calm Calm - N/A   Overcast
5:15 AM 55.4 °F 51.8 °F 88% 29.97 in 10.0 mi Calm Calm - N/A   Mostly Cloudy
5:55 AM 55.4 °F 51.8 °F 88% 29.98 in 10.0 mi Calm Calm - N/A   Clear
6:15 AM 55.4 °F 51.8 °F 88% 29.99 in 10.0 mi NNE 5.8 mph - N/A   Clear
6:35 AM 55.4 °F 50.0 °F 82% 30.00 in 10.0 mi NNE 3.5 mph - N/A   Clear
6:55 AM 55.4 °F 50.0 °F 82% 30.01 in 10.0 mi NE 3.5 mph - N/A   Clear
7:15 AM 53.6 °F 48.2 °F 82% 30.02 in 10.0 mi NNE 3.5 mph - N/A   Clear
7:35 AM 53.6 °F 48.2 °F 82% 30.02 in 10.0 mi Calm Calm - N/A   Clear
7:55 AM 55.4 °F 51.8 °F 88% 30.03 in 10.0 mi Calm Calm - N/A   Clear
8:15 AM 55.4 °F 51.8 °F 88% 30.04 in 10.0 mi NE 3.5 mph - N/A   Clear
8:35 AM 57.2 °F 51.8 °F 82% 30.04 in 10.0 mi NE 3.5 mph - N/A   Clear
8:55 AM 59.0 °F 51.8 °F 77% 30.05 in 10.0 mi NE 6.9 mph - N/A   Clear
9:15 AM 60.8 °F 51.8 °F 72% 30.06 in 10.0 mi ENE 6.9 mph - N/A   Clear
9:35 AM 62.6 °F 51.8 °F 68% 30.06 in 10.0 mi NE 3.5 mph - N/A   Clear
9:55 AM 64.4 °F 50.0 °F 59% 30.06 in 10.0 mi ENE 9.2 mph - N/A   Clear
10:35 AM 66.2 °F 50.0 °F 56% 30.06 in 10.0 mi East 5.8 mph - N/A   Clear
10:55 AM 66.2 °F 50.0 °F 56% 30.07 in 10.0 mi ENE 6.9 mph - N/A   Clear
11:15 AM 68.0 °F 48.2 °F 49% 30.07 in 10.0 mi ENE 3.5 mph - N/A   Clear
11:35 AM 69.8 °F 48.2 °F 46% 30.07 in 10.0 mi ENE 6.9 mph - N/A   Clear
11:55 AM 69.8 °F 48.2 °F 46% 30.07 in 10.0 mi ENE 6.9 mph - N/A   Clear
12:15 PM 69.8 °F 48.2 °F 46% 30.06 in 10.0 mi NE 3.5 mph - N/A   Clear
12:35 PM 69.8 °F 48.2 °F 46% 30.06 in 10.0 mi NE 6.9 mph - N/A   Clear